Location: Armstrong
(40.9123°N, 82.0110°W)
Time: 08:13:55
(UTC+00:00)

ERS-2 - Pass Details

Date: 29 October 2020
Orbit: 493 x 497 km, 98.6° (Epoch: 29 November)

Event Time Altitude Azimuth Distance (km) Brightness Sun altitude
Rises 23:30:56 0° 4° (N) 2,585 5.6 -12.6°
Reaches altitude 10° 23:33:07 10° 356° (N) 1,698 4.8 -13.0°
Maximum altitude 23:36:28 36° 289° (WNW) 802 3.8 -13.6°
Drops below altitude 10° 23:39:49 10° 222° (SW) 1,687 5.5 -14.3°
Sets 23:41:59 0° 213° (SSW) 2,565 6.3 -14.7°
